Regional Weather Roundup
Issued by NWS

Home | Current Version | Previous Version | Graphics & Text | Print | Product List | Glossary On
Versions: 1 2 3 4 5 6 7 8 9 10 11 12 13 14 15 16 17 18 19 20 21 22 23 24 25 26 27 28 29 30 31 32 33 34 35 36 37 38 39 40 41 42 43 44 45 46 47 48 49 50
638
ASUS43 KFSD 241710
RWRSD

WEATHER ROUNDUP FOR SOUTH DAKOTA
NATIONAL WEATHER SERVICE SIOUX FALLS SD
1200 PM CDT WED MAY 24 2017

NOTE: "FAIR" INDICATES FEW OR NO CLOUDS BELOW 12,000 FEET WITH NO
SIGNIFICANT WEATHER AND/OR OBSTRUCTIONS TO VISIBILITY.


SDZ001>005-009-010-012>017-241800-
NORTHWEST AND NORTH CENTRAL SOUTH DAKOTA

CITY           SKY/WX    TMP DP  RH WIND       PRES   REMARKS
BUFFALO          N/A     65  39  38 S31G38    29.48F
FAITH            N/A     61  39  44 S21G29    29.62F
MOBRIDGE       FAIR      61  41  47 S16G22    29.67F
$$

SDZ012>016-024>037-041>051-057-063-072>074-241800-
SOUTHWEST AND SOUTH CENTRAL SOUTH DAKOTA

CITY           SKY/WX    TMP DP  RH WIND       PRES   REMARKS
RAPID CTY ARPT FAIR      63  41  44 S21G30    29.61F
PIERRE         FAIR      60  41  49 SE10      29.70F
CUSTER         FAIR      60  32  34 W8        29.67F
ELLSWORTH AFB  FAIR      63  41  44 S25G32    29.58F
PHILIP         FAIR      64  38  38 S13G25    29.67F
PINE RIDGE     FAIR      64  43  46 S15G24    29.66F
SPEARFISH      FAIR      66  45  45 NE9       29.56F
WINNER         FAIR      60  45  57 SE10      29.74F
$$

SDZ004>011-016>023-039-040-241800-
NORTHEAST SOUTH DAKOTA

CITY           SKY/WX    TMP DP  RH WIND       PRES   REMARKS
ABERDEEN       PTSUNNY   59  39  47 SE9G18    29.73F
WATERTOWN      CLOUDY    55  43  63 SE7       29.75F
BROOKINGS      CLOUDY    55  45  67 SE7       29.76F
SISSETON         N/A     58  47  66 S9        29.75F
$$

SDZ017-020-022-023-036>040-048>070-241800-
SOUTHEAST SOUTH DAKOTA

CITY           SKY/WX    TMP DP  RH WIND       PRES   REMARKS
SIOUX FALLS    PTSUNNY   59  47  64 N3        29.75F
HURON          PTSUNNY   59  45  59 S6        29.74F
CHAMBERLAIN    CLOUDY    59  45  60 S6        29.74F
MITCHELL       PTSUNNY   59  46  62 VRB5      29.76F
YANKTON        CLOUDY    57  45  64 CALM      29.77F
$$

ABBREVIATIONS USED IN REMARKS
   TC - TEMPERATURE IN CELSIUS
  WCI - WIND CHILL INDEX
   HX - HEAT INDEX
  VSB - VISIBILITY





USA.gov is the U.S. government's official web portal to all federal, state and local government web resources and services.